Weather Roundup
Issued by NWS Chicago, IL

Home | Current Version | Previous Version | Text Only | Print | Product List | Glossary Off
Versions: 1 2 3 4 5 6 7 8 9 10 11 12 13 14 15 16 17 18 19 20 21 22 23 24 25 26 27 28 29 30 31 32 33 34 35 36 37 38 39 40 41 42 43 44 45 46 47 48 49 50

000
NZUS59 KLOT 152210
HRRLOT

CHICAGO AREA WEATHER ROUNDUP
NATIONAL WEATHER SERVICE CHICAGO/ROMEOVILLE IL
500 PM CDT MON SEP 15 2014

NOTE: "FAIR" INDICATES FEW OR NO CLOUDS BELOW 12,000 FEET WITH NO
SIGNIFICANT WEATHER AND/OR OBSTRUCTIONS TO VISIBILITY.

* THESE STATIONS ARE NOT UNDER NWS QUALITY CONTROL. THEY ALSO MAY NOT
  REPORT WEATHER SUCH AS PRECIPITATION OR FOG.

ILZ005-006-012>014-019>023-152300-
NORTHEAST ILLINOIS

CITY           SKY/WX    TMP DP  RH WIND       PRES   REMARKS
OHARE          CLOUDY    59  53  80 NW5       30.09S
MIDWAY         DRIZZLE   58  53  84 NW6       30.09S
AURORA         CLOUDY    58  52  80 NE3       30.10S
LANSING*       DRIZZLE   56  53  92 CALM      30.09S
JOLIET*        DRIZZLE   55  53  94 CALM      30.11R
WAUKEGAN       LGT RAIN  54  52  93 N8G16     30.10R FOG
DUPAGE AIRPORT CLOUDY    58  53  84 N6        30.09S
WHEELING       CLOUDY    60  52  74 CALM      30.11R
KANKAKEE*      DRIZZLE   55  54  96 E3        30.09R
MORRIS*        DRIZZLE   56  56 100 CALM      30.09R
LEWIS AIRPORT* DRIZZLE   55  55  99 CALM      30.10R
NORTHERLY IS     N/A     59  49  69 W5          N/A
$$

WIZ051-052-058>065-066-070>072-152300-
SOUTHEAST WISCONSIN

CITY           SKY/WX    TMP DP  RH WIND       PRES   REMARKS
MILWAUKEE      PTSUNNY   54  51  90 N7        30.12R
KENOSHA*       CLOUDY    54  52  93 N7        30.11S
RACINE*        CLOUDY    54  52  93 N7        30.12S
BURLINGTON     CLOUDY    52  50  92 N7        30.12R
WAUKESHA       PTSUNNY   52  48  87 N5        30.13R
WEST BEND      CLOUDY    54  46  76 NW5       30.12S
$$

INZ001>003-010>013-019-020-152300-
NORTHWEST INDIANA

CITY           SKY/WX    TMP DP  RH WIND       PRES   REMARKS
GARY*          LGT RAIN  57  54  88 CALM      30.10R
MICHIGAN CITY* NOT AVBL
RENSSELAER*    NOT AVBL
VALPARAISO     CLOUDY    55  53  93 CALM      30.09F
$$

LMZ740>746-152300-
SOUTHERN LAKE MICHIGAN

STATION/POSITION TIME  SKY/WX   TEMP WIND        PRES    VSBY
                                AIR  DIR/SP/G
                 (UTC)          (F)  (DEG/KT/KT) (MB)    (MI)
HARRISON CRIB    2200            58  300/  7/  8   N/A
BURNHAM HARBOR   2200            58  230/  6/  8   N/A
CALUMET HARBOR   2200            56  290/  4/  5 1017.8R
BURNS HARBOR     NOT AVBL
MICHIGAN CITY    2200            56  200/  7/  8   N/A
$$

ABBREVIATIONS USED IN REMARKS
   TC - TEMPERATURE IN CELSIUS
  WCI - WIND CHILL INDEX
   HX - HEAT INDEX
  VSB - VISIBILITY
$$


USA.gov is the U.S. government's official web portal to all federal, state and local government web resources and services.